Location: Bodest
(46.3000°N, 22.5667°E)
Time: 17:54:13
(UTC+00:00)

OBJECT B - Visible Passes

Search period start: 11 August 2022 00:00
Search period end: 21 August 2022 00:00
Orbit: 477 x 495 km, 97.5° (Epoch: 11 August)

Date Brightness Start Highest point End Pass type
(mag) Time Alt. Az. Time Alt. Az. Time Alt. Az.
11 Aug ? 01:58:54 10° SSE 02:02:26 73° ENE 02:06:00 10° N visible
12 Aug ? 01:35:21 10° SE 01:38:38 36° ENE 01:41:56 10° N visible
13 Aug ? 01:12:15 10° ESE 01:14:54 20° ENE 01:17:34 10° NNE visible
13 Aug ? 02:45:04 10° SSW 02:48:12 29° W 02:51:23 10° NW visible
14 Aug ? 00:50:01 10° E 00:51:15 11° ENE 00:52:29 10° NE visible
14 Aug ? 02:20:43 10° S 02:24:14 59° W 02:27:46 10° NNW visible
15 Aug ? 01:56:49 10° SSE 02:00:20 68° ENE 02:03:53 10° N visible
16 Aug ? 01:33:15 10° SE 01:36:29 34° ENE 01:39:44 10° N visible
17 Aug ? 01:10:09 10° ESE 01:12:43 19° ENE 01:15:17 10° NNE visible
17 Aug ? 02:42:47 10° SSW 02:45:59 31° W 02:49:13 10° NNW visible
18 Aug ? 00:48:05 10° ENE 00:49:01 11° ENE 00:49:56 10° NE visible
18 Aug ? 02:18:27 10° S 02:21:58 64° W 02:25:31 10° NNW visible
19 Aug ? 01:54:31 10° SSE 01:58:01 62° ENE 02:01:33 10° N visible
20 Aug ? 01:30:58 10° SE 01:34:08 32° ENE 01:37:20 10° N visible
